Location: Mahannah Oil Field
(37.4664°N, 96.6003°W)
Time: 03:34:42
(UTC+00:00)

Tiros 1 despin weight - Pass Details

Date: 31 January 2021
Orbit: 593 x 642 km, 48.2° (Epoch: 02 March)

Event Time Altitude Azimuth Distance (km) Brightness Sun altitude
Rises 23:36:26 0° 304° (NW) 2,872 ? 1.6°
Reaches altitude 10° 23:38:46 10° 305° (NW) 1,957 ? 1.2°
Maximum altitude 23:43:15 82° 33° (NNE) 610 ? 0.4°
Drops below altitude 10° 23:47:41 10° 122° (ESE) 1,924 ? -0.4°
Sets 23:49:57 0° 123° (ESE) 2,819 ? -0.8°
